Regional Weather Roundup
Issued by NWS

Home | Current Version | Previous Version | Text Only | Print | Product List | Glossary On
Versions: 1 2 3 4 5 6 7 8 9 10 11 12 13 14 15 16 17 18 19 20 21 22 23 24 25 26 27 28 29 30 31 32 33 34 35 36 37 38 39 40 41 42 43 44 45 46 47 48 49 50
000
ASUS43 KMPX 182010
RWRMN
WEATHER ROUNDUP FOR MINNESOTA
NATIONAL WEATHER SERVICE TWIN CITIES/CHANHASSEN MN
200 PM CST THU JAN 18 2018


NOTE: "FAIR" INDICATES FEW OR NO CLOUDS BELOW 12,000 FEET WITH NO
SIGNIFICANT WEATHER AND/OR OBSTRUCTIONS TO VISIBILITY. N/A MEANS
CURRENT SKY AND/OR WEATHER CONDITIONS ARE NOT AVAILABLE.

MNZ060>063-068>070-182100-
   Twin Cities Metro

CITY           SKY/WX    TMP DP  RH WIND       PRES   REMARKS
TWIN CITIES    PTSUNNY   41  26  55 SW10      29.80F
ST PAUL        FAIR      40  24  53 SW9G16    29.81F
CRYSTAL        FAIR      42  22  44 W9        29.78F
BLAINE         PTSUNNY   43  25  49 W9        29.78F
LAKEVILLE      FAIR      37  25  60 SW3       29.81F
EDEN PRAIRIE   FAIR      40  26  57 SW8       29.79F
SOUTH ST PAUL  FAIR      41  24  51 SW7       29.80F
LAKE ELMO      FAIR      39  27  60 SW9       29.80F
$$
MNZ001>005-007-008-013>017-022>024-027-028-182100-
   Northwest Minnesota

CITY           SKY/WX    TMP DP  RH WIND       PRES   REMARKS
BEMIDJI        CLOUDY    32  25  77 W6        29.72F WCI  26
HALLOCK        PTSUNNY   27  21  80 S5        29.72F WCI  21
ROSEAU         CLOUDY    27  21  80 W6        29.71F WCI  20
WARROAD        PTSUNNY   27  21  80 W8        29.72S WCI  18
THIEF RVR FALL FAIR      27  22  81 S7        29.73F WCI  19
CROOKSTON      FAIR      27  21  80 S7        29.74F WCI  19
FOSSTON        FAIR      27  19  74 S7        29.75R WCI  19
DETROIT LAKES  FAIR      32  23  69 S5        29.75F WCI  27
MOORHEAD       FAIR      30  25  80 SW3       29.77S
PARK RAPIDS    FAIR      34  24  67 CALM      29.72F
MAHNOMEN       FAIR      27  21  80 SW7       29.74S WCI  19
$$
MNZ006-009>011-018-025>026-182100-
   North Central Minnesota

CITY           SKY/WX    TMP DP  RH WIND       PRES   REMARKS
BAUDETTE       CLOUDY    26  20  77 W7        29.70R WCI  18
FLAG ISLAND    FAIR      25  16  68 NW9       29.69R WCI  15
INTL FALLS     CLOUDY    29  23  78 W9        29.68F WCI  20
WASKISH        CLOUDY    28  25  86 W3        29.72F
BIG FORK       CLOUDY    30  23  74 W6        29.71R WCI  24
LONGVILLE      FAIR      36  25  64 SW7       29.72F
GRAND RAPIDS   CLOUDY    34  25  69 NW7       29.73S WCI  28
CRANE LAKE     CLOUDY    28  27  93 CALM      29.69F
ORR            CLOUDY    28  21  74 W5        29.66F WCI  23
COOK           CLOUDY    30  23  74 W7        29.68F WCI  23
WALKER         FAIR      33  26  75 W8        29.72F WCI  26
$$
MNZ012-019>021-037-182100-
   Northeast Minnesota

CITY           SKY/WX    TMP DP  RH WIND       PRES   REMARKS
DULUTH         CLOUDY    34  26  72 W16       29.69F WCI  24
ELY            CLOUDY    30  27  86 W8        29.67F WCI  23
HIBBING        CLOUDY    30  24  78 NW5       29.69F WCI  25
EVELETH        PTSUNNY   30  21  68 W6        29.70F WCI  24
DULUTH HARBOR  CLOUDY    37  28  70 W10       29.73F
TWO HARBORS    CLOUDY    37  27  65 W8G16     29.68F
SILVER BAY     CLOUDY    36  25  64 W3        29.67S
GRAND MARAIS     N/A     36  29  75 W6        29.67R
G MARAIS ARPRT CLOUDY    28  25  86 W8        29.62R WCI  20
$$
MNZ029>031-032-039>041-046>048-054>057-064-182100-
   West Central Minnesota

CITY           SKY/WX    TMP DP  RH WIND       PRES   REMARKS
FERGUS FALLS   FAIR      34  25  69 W5        29.75F WCI  30
WHEATON        CLOUDY    41  23  48 W3        29.79F
MORRIS         CLOUDY    43  27  52 NW3       29.76F
ALEXANDRIA     FAIR      38  24  57 W6        29.76F
ELBOW LAKE     FAIR      35  26  67 NW3       29.77F HAZE
WADENA         FAIR      34  21  60 SW5       29.74F WCI  30
GLENWOOD       FAIR      37  27  65 W7        29.77S
APPLETON       CLOUDY    45  28  53 SW3       29.77F
BENSON         CLOUDY    43  27  52 NW3       29.78F
ORTONVILLE     CLOUDY    45  27  49 CALM      29.77F
MADISON        CLOUDY    45  30  57 SW7       29.77F
WILLMAR        FAIR      39  28  65 SW6       29.80F
$$
MNZ033>034-036-042>043-049>051-058-059-182100-
   Central Minnesota

CITY           SKY/WX    TMP DP  RH WIND       PRES   REMARKS
ST CLOUD       FAIR      38  26  62 SW8       29.76F
SAUK CENTRE      N/A     37  25  63 W8        29.76F
PAYNESVILLE    FAIR      41  29  61 SW7       29.77F
AITKIN         FAIR      36  25  64 W7        29.72F
PINE RIVER     FAIR      34  25  69 SW6       29.77F WCI  29
BRAINERD       FAIR      35  25  66 SW7       29.75F WCI  29
STAPLES        FAIR      34  21  60 CALM      29.75S
LONG PRAIRIE   FAIR      36  25  64 SW5       29.76F
LITTLE FALLS   FAIR      37  18  44 W6        29.77S
LITCHFIELD     FAIR      43  28  56 W3        29.78F
BUFFALO        FAIR      39  26  58 SW5       29.79F
MAPLE LAKE     FAIR      42  28  57 MISG      29.78F
HUTCHINSON     FAIR      42  30  63 SW8       29.79F
$$
MNZ037-044-045-052-053-182100-
   East Central Minnesota

CITY           SKY/WX    TMP DP  RH WIND       PRES   REMARKS
PRINCETON      FAIR      43  25  49 SW5       29.77F
MORA           FAIR      36  23  60 SW7       29.77F
CAMBRIDGE        N/A     41  27  56 SW5       29.77F
RUSH CITY      FAIR      38  24  55 SW5       29.77F
MOOSE LAKE     FAIR      37  28  70 W8        29.71F
HINCKLEY       FAIR      39  30  70 W8        29.75F
CLOQUET        FAIR      36  25  64 W8        29.71S
MCGREGOR       FAIR      37  28  70 W8        29.73F
$$
MNZ071>073-080-081-089-090-097-098-182100-
   Southwest Minnesota

CITY           SKY/WX    TMP DP  RH WIND       PRES   REMARKS
MONTEVIDEO     CLOUDY    45  27  49 CALM      29.78F
GRANITE FALLS  CLOUDY    48  33  55 W6        29.80F
CANBY          CLOUDY    44  29  55 SW8       29.78F
MARSHALL       CLOUDY    40  28  62 W10       29.79F
REDWOOD FALLS  CLOUDY    43  30  60 SW9       29.78F
OLIVIA         CLOUDY    43  30  61 W5        29.79S
PIPESTONE      CLOUDY    32  27  80 W8        29.81S WCI  25
WINDOM         CLOUDY    39  21  48 SW14      29.80F
WORTHINGTON    CLOUDY    36  28  73 SW14      29.81F
JACKSON        CLOUDY    39  28  65 SW12      29.82F
SLAYTON        CLOUDY    35  27  73 SW14      29.80F WCI  26
$$
MNZ065>067-074>077-082>085-091>093-182100-
   South Central Minnesota

CITY           SKY/WX    TMP DP  RH WIND       PRES   REMARKS
MANKATO        FAIR      41  28  60 SW9       29.82F
NEW ULM        CLOUDY    45  30  57 SW7       29.80F
ST JAMES       CLOUDY    45  30  57 SW9       29.82F
FAIRMONT       CLOUDY    40  28  62 SW16      29.83F
FARIBAULT      FAIR      37  28  70 S9        29.82F
OWATONNA       FAIR      37  27  65 SW9       29.83S
WASECA         FAIR      36  30  80 SW10      29.83F
ALBERT LEA     FAIR      37  25  60 SW10G17   29.84R
$$
MNZ078>079-086>088-094>096-182100-
   Southeast Minnesota

CITY           SKY/WX    TMP DP  RH WIND       PRES   REMARKS
ROCHESTER      FAIR      34  26  72 SW13      29.83F WCI  25
RED WING       FAIR      37  19  48 SW9       29.82F
STANTON        FAIR      37  26  63 SW6       29.81F
DODGE CENTER   FAIR      36  27  69 SW16      29.82S
WINONA         FAIR      37  27  65 W8        29.84F
AUSTIN         FAIR      34  25  69 SW14      29.84F WCI  24
PRESTON        FAIR      34  23  65 SW14      29.85F WCI  24
$$
ABBREVIATIONS USED IN REMARKS
   TC - TEMPERATURES IN CELSIUS
  WCI - WIND CHILL INDEX
   HX - HEAT INDEX
  VSB - VISIBILITY
$$




USA.gov is the U.S. government's official web portal to all federal, state and local government web resources and services.